Wind_Speed
44 44 44 43 44 45 46 45 44 43 42 43 44 45 45 45 44 44 42 41 41 41 41 43 44 45 46 47 46 44 43 44 44 44 43 42 43 44
43 43 43 43 44 44 44 43 42 41 40 40 41 41 41 40 40 38 37 36 34 33 35 35 37 39 39 40 44 43 43 43 43 43 43 42 42 43
43 43 43 43 43 43 42 41 41 40 39 38 38 38 37 37 35 33 31 30 29 29 29 30 32 33 35 36 38 39 40 40 42 43 43 43 43 44
41 41 42 42 41 41 40 39 38 37 37 36 36 36 35 33 31 30 28 27 25 24 25 27 28 31 34 35 37 39 41 41 41 42 43 44 45 46
39 40 40 40 39 39 38 37 36 36 35 35 35 34 33 32 30 29 27 26 25 25 25 26 28 30 31 34 36 37 39 41 43 43 44 44 45 46
38 38 38 38 37 36 35 35 34 34 34 34 33 32 31 31 30 29 28 27 26 26 27 28 29 31 32 33 36 38 40 41 43 44 45 46 47 48
36 36 36 36 35 34 34 34 34 34 34 33 32 32 32 31 31 31 30 29 29 29 29 30 31 32 34 35 37 39 41 42 43 44 46 47 48 49
35 35 34 34 33 33 34 33 33 33 33 33 33 33 33 33 32 32 32 32 32 32 33 34 35 36 37 38 40 42 43 45 46 47 48 49 50 51
33 33 33 33 32 33 33 33 33 33 33 33 34 34 34 34 34 34 35 35 35 36 36 38 39 40 41 42 44 45 46 47 48 49 50 51 51 52
32 32 31 31 32 33 33 33 33 34 34 34 35 35 35 36 36 37 37 38 39 39 40 42 43 44 45 46 47 48 49 49 50 51 51 52 53 53
31 31 31 31 32 33 33 34 34 34 35 35 36 37 37 37 38 39 39 40 41 43 44 45 47 48 49 50 50 51 52 52 53 53 54 54 54 53
31 31 32 32 33 33 34 34 35 35 36 37 38 38 39 39 40 41 42 44 45 46 47 48 49 50 51 52 53 54 55 55 55 54 54 53 53 53
31 32 33 33 34 34 35 35 36 37 38 38 39 40 41 41 42 44 45 47 48 49 50 51 52 53 53 53 55 56 56 56 55 53 52 52 51 51
32 33 34 34 35 35 36 37 37 38 39 40 41 42 43 44 45 47 48 50 51 51 52 53 53 54 54 54 54 55 55 55 54 52 51 50 49 48
34 34 35 36 36 37 37 38 38 39 40 41 42 43 44 46 48 50 51 51 52 53 54 54 54 54 53 52 52 52 52 52 52 50 49 48 47 46
35 35 36 37 37 38 38 39 40 41 41 42 43 45 46 48 49 51 52 53 54 54 54 53 53 52 50 49 49 48 49 49 49 49 47 45 45 43
36 37 37 38 38 39 40 41 41 42 43 44 45 46 48 49 51 52 52 53 53 53 53 53 52 50 48 46 45 45 45 45 46 45 44 42 42 42
37 38 38 39 40 40 41 42 42 43 44 45 46 48 49 50 52 53 53 53 52 52 52 52 51 48 45 43 44 43 43 43 42 42 41 39 37 40
38 39 40 40 41 42 42 43 43 44 45 46 48 49 50 52 53 53 53 52 52 51 51 51 49 47 44 41 40 42 41 40 39 38 38 36 35 36
39 40 41 42 42 43 43 44 45 46 46 47 49 50 51 52 53 52 52 52 51 50 49 49 49 46 43 39 36 38 41 40 38 36 36 35 34 34
40 41 42 43 43 44 44 45 46 47 47 48 50 51 52 52 52 52 52 51 50 48 47 47 47 46 42 39 36 34 38 39 37 36 35 34 33 33
42 42 43 43 43 44 45 46 47 48 48 49 50 52 52 52 51 51 51 50 48 47 46 46 45 44 42 40 36 34 34 36 37 35 34 34 32 31
42 43 43 44 44 45 46 47 47 48 49 49 51 52 51 51 51 50 50 49 48 47 46 44 43 42 41 40 36 34 33 33 34 33 33 34 32 31
Wind_Direction
293 294 295 297 297 299 300 300 301 302 302 303 305 307 306 305 302 299 295 290 284 280 276 272 266 263 262 262 261 262 264 264 264 265 263 261 259 258
293 294 295 296 298 299 299 300 301 302 304 306 308 310 311 309 308 305 300 295 290 283 279 274 269 265 262 262 263 265 265 265 264 264 263 262 260 258
292 293 294 296 297 297 298 299 300 302 304 307 309 312 314 314 312 312 307 301 296 288 284 280 275 269 265 264 265 266 267 267 265 265 264 264 263 261
292 293 294 296 296 297 298 298 300 302 304 307 310 312 314 316 315 315 313 308 301 295 292 287 281 276 272 270 269 268 269 268 268 268 267 265 263 262
292 293 294 295 296 296 297 298 300 302 304 307 310 312 313 315 314 314 312 310 305 298 294 289 284 279 275 273 272 271 271 270 270 269 267 266 265 263
292 293 294 295 295 296 297 298 300 301 303 306 308 310 312 313 313 313 311 308 304 299 295 291 286 282 279 277 275 273 273 272 271 270 269 268 267 266
292 293 294 294 295 296 297 298 300 301 303 304 306 308 309 310 310 310 309 307 303 299 295 292 289 285 283 281 279 276 275 274 274 273 272 271 270 268
293 294 294 295 295 296 297 299 300 301 303 304 305 306 307 308 308 307 307 306 303 301 298 295 292 289 286 284 282 280 279 278 277 275 274 273 272 270
293 294 295 295 296 297 298 299 300 301 302 303 304 305 305 306 306 305 304 303 301 300 298 296 294 292 290 288 285 283 282 280 278 277 276 275 274 272
294 295 296 297 297 298 299 299 300 301 302 303 304 304 304 304 304 304 303 302 301 300 298 296 294 293 291 289 286 284 283 281 280 279 278 277 275 274
295 296 297 297 298 299 299 300 301 301 302 303 304 304 304 304 304 304 303 302 301 300 298 296 294 293 291 289 286 285 284 283 281 280 278 277 276 274
296 296 297 298 298 300 300 301 301 302 303 303 304 304 304 304 304 304 304 303 302 300 299 297 295 293 292 290 287 286 285 284 282 281 279 277 276 274
297 297 298 298 299 300 301 302 302 303 303 304 304 304 305 305 305 305 305 304 303 302 300 299 297 295 293 291 289 287 286 285 283 281 279 278 276 274
298 298 299 299 300 301 302 302 303 303 304 304 305 306 306 306 307 307 306 306 304 303 302 300 298 296 294 292 290 288 287 285 283 282 280 278 277 275
298 299 299 300 301 301 302 303 303 304 304 305 306 306 307 307 308 308 308 307 305 304 303 302 300 299 297 294 291 288 286 285 283 282 281 279 277 275
298 299 299 300 301 301 302 303 304 304 305 305 306 307 308 308 309 309 309 308 308 307 305 304 303 302 300 297 294 290 287 285 283 282 281 279 277 274
298 299 300 300 301 302 302 303 304 304 305 305 306 308 309 309 310 311 311 311 310 309 308 307 307 305 303 300 297 293 289 286 284 283 281 279 276 273
298 299 300 301 301 302 303 304 304 305 305 306 307 308 309 310 311 311 312 312 311 310 309 309 309 308 307 303 299 295 290 288 286 285 282 279 275 273
298 299 300 301 301 302 303 303 304 305 305 306 308 309 310 311 312 312 313 313 313 312 311 310 310 310 308 304 301 296 292 290 288 286 284 280 276 272
297 298 299 300 301 302 303 304 304 305 306 307 309 310 311 312 313 313 314 314 313 313 312 311 311 311 309 307 302 296 293 291 289 286 283 281 278 273
297 298 299 300 300 302 303 304 305 306 307 308 309 310 312 313 313 314 314 314 314 313 313 313 312 312 310 308 305 299 295 293 290 287 284 281 277 274
297 298 299 300 301 302 304 305 305 306 307 309 310 311 312 312 313 314 315 315 314 314 314 313 312 312 311 309 307 303 297 294 293 291 287 282 278 274
297 299 300 300 302 303 304 305 306 307 308 309 310 312 312 313 314 314 315 315 315 314 314 314 313 312 311 310 308 305 301 296 294 292 291 288 284 279
Height
5733 5730 5727 5724 5720 5717 5713 5710 5707 5703 5699 5693 5687 5680 5673 5666 5659 5654 5650 5646 5645 5643 5643 5643 5645 5648 5651 5654 5658 5661 5663 5666 5668 5670 5672 5674 5676 5679
5723 5720 5717 5714 5710 5706 5703 5699 5695 5692 5688 5683 5677 5670 5663 5656 5650 5644 5639 5636 5634 5633 5633 5633 5635 5637 5640 5643 5647 5649 5651 5653 5655 5657 5659 5662 5664 5665
5713 5710 5707 5704 5700 5697 5693 5689 5685 5682 5678 5673 5667 5661 5655 5649 5643 5637 5632 5629 5627 5625 5625 5626 5627 5628 5630 5633 5635 5637 5639 5641 5643 5645 5646 5648 5650 5652
5703 5700 5697 5694 5691 5687 5683 5680 5676 5672 5668 5664 5659 5653 5648 5642 5637 5632 5627 5624 5621 5619 5619 5619 5619 5620 5621 5623 5624 5626 5628 5629 5630 5631 5633 5635 5636 5637
5694 5691 5688 5684 5681 5678 5674 5671 5667 5663 5659 5655 5651 5646 5641 5636 5631 5627 5623 5619 5616 5614 5613 5612 5612 5612 5613 5613 5614 5615 5616 5617 5617 5618 5619 5620 5621 5622
5685 5682 5678 5675 5672 5669 5665 5662 5658 5655 5651 5647 5642 5638 5634 5629 5625 5621 5617 5614 5611 5609 5607 5606 5605 5604 5603 5603 5604 5604 5604 5604 5604 5604 5604 5605 5606 5607
5676 5673 5670 5666 5663 5660 5657 5653 5650 5646 5642 5639 5635 5631 5627 5623 5619 5615 5611 5608 5605 5602 5600 5598 5596 5595 5594 5593 5592 5592 5591 5590 5590 5589 5589 5589 5590 5590
5667 5664 5661 5658 5655 5652 5648 5645 5641 5638 5634 5630 5627 5623 5619 5615 5611 5608 5604 5601 5598 5595 5592 5589 5587 5585 5583 5582 5580 5578 5577 5576 5575 5574 5573 5573 5572 5572
5659 5656 5653 5649 5646 5643 5640 5637 5633 5629 5626 5622 5619 5615 5611 5607 5603 5599 5596 5592 5589 5586 5583 5579 5577 5574 5571 5569 5566 5564 5562 5560 5559 5558 5556 5555 5555 5554
5650 5647 5644 5641 5638 5635 5632 5628 5625 5621 5618 5614 5610 5606 5602 5598 5594 5590 5586 5583 5579 5575 5572 5569 5565 5562 5558 5555 5552 5549 5547 5545 5543 5541 5539 5537 5536 5535
5642 5639 5636 5633 5630 5627 5624 5620 5616 5613 5609 5605 5601 5596 5592 5588 5584 5580 5576 5572 5568 5564 5560 5556 5552 5548 5544 5540 5536 5533 5530 5527 5525 5523 5520 5519 5517 5516
5635 5631 5628 5625 5622 5618 5615 5611 5608 5604 5600 5595 5591 5587 5583 5578 5574 5569 5565 5560 5555 5551 5546 5542 5537 5532 5528 5523 5519 5515 5512 5509 5506 5504 5501 5499 5498 5497
5626 5623 5620 5617 5613 5610 5606 5602 5598 5594 5590 5586 5581 5577 5572 5567 5562 5557 5552 5547 5541 5536 5531 5526 5520 5515 5510 5506 5500 5495 5492 5489 5486 5484 5482 5481 5479 5478
5618 5615 5612 5608 5604 5601 5597 5593 5589 5584 5580 5575 5571 5566 5561 5556 5550 5545 5539 5533 5527 5521 5515 5509 5504 5498 5492 5487 5482 5476 5472 5469 5466 5465 5463 5462 5461 5459
5610 5606 5603 5599 5595 5591 5587 5583 5579 5574 5570 5565 5560 5555 5549 5543 5537 5531 5525 5518 5511 5505 5498 5492 5486 5480 5474 5469 5464 5458 5454 5450 5447 5446 5445 5444 5443 5442
5601 5597 5594 5590 5586 5582 5578 5573 5569 5564 5559 5554 5549 5543 5537 5531 5524 5518 5510 5503 5496 5488 5482 5475 5469 5462 5456 5450 5446 5440 5436 5433 5430 5428 5428 5427 5425 5424
5591 5588 5584 5580 5576 5572 5567 5563 5558 5553 5548 5543 5537 5531 5525 5518 5511 5504 5497 5489 5481 5473 5465 5458 5452 5446 5440 5434 5429 5424 5420 5416 5414 5412 5411 5411 5410 5408
5582 5578 5574 5570 5566 5561 5557 5552 5547 5542 5537 5531 5525 5519 5512 5505 5498 5490 5483 5475 5467 5459 5451 5443 5437 5431 5426 5420 5414 5409 5405 5401 5398 5397 5395 5396 5396 5394
5572 5568 5564 5560 5555 5550 5546 5541 5536 5531 5525 5519 5513 5506 5499 5492 5484 5477 5469 5462 5454 5445 5437 5429 5423 5417 5412 5407 5401 5394 5390 5387 5385 5383 5381 5381 5382 5381
5561 5557 5553 5548 5544 5539 5534 5529 5524 5518 5513 5507 5500 5494 5486 5479 5471 5464 5456 5448 5441 5433 5425 5416 5409 5404 5399 5395 5390 5383 5376 5374 5372 5371 5369 5368 5368 5368
5550 5546 5542 5537 5532 5527 5522 5517 5512 5506 5500 5494 5487 5480 5473 5466 5458 5451 5443 5435 5428 5421 5413 5405 5397 5391 5386 5382 5378 5373 5366 5360 5359 5358 5357 5356 5356 5356
5539 5534 5530 5525 5521 5516 5511 5505 5499 5494 5488 5481 5474 5467 5460 5453 5446 5438 5430 5423 5416 5408 5402 5394 5387 5380 5374 5369 5366 5362 5357 5350 5347 5345 5344 5343 5342 5344
5527 5523 5518 5514 5509 5504 5499 5493 5487 5481 5475 5469 5462 5454 5447 5440 5433 5426 5418 5411 5404 5397 5390 5383 5376 5369 5363 5358 5354 5350 5346 5341 5337 5335 5333 5330 5330 5331